Content
SEND FEEDBACK

Daily
Averages
Monthly
Summary
United States of America

UPI, GUAM


Home > North America > United States > Guam
Elevation: 53 feet     Latitude: 13 34N     Longitude: 144 55E

WEATHER
 
SELECT A DAY
Number of Records: 208,919;   Date Range: 1/1/95 - 7/23/14
 
SHARE

PRINT THIS DATA

[ ← Previous Day ]
WEATHER ALMANAC - MAY 3, 2013
[ Next Day → ]
[ °C ]   °F
Weather ElementAverageHighLow
Temperature83.5 °F88 °F (11:54 am)81 °F (2:54 am)
Dewpoint77.4 °F78.8 °F (9:59 am)75 °F (11:54 pm)
Humidity82 %89 % (3:22 pm)66 % (1:08 pm)
Barometer29.89 in29.96 in (10:41 pm)29.83 in (2:54 am)
Wind Speed8.2 mph16.1 mph (2:31 pm)
Wind Gust21.9 mph (11:01 am)
Weather ElementAverage
Visibility9 mi
Wind DirectionESE (115.5 °)

Weather ElementTotal
Precipitation0.97 in
Cooling Degree Days19.5 (Base 65)
Growing Degree Days34.5 (Base 50)
Averaged from 42 records on May 3, 2013
WEATHER CONDITIONS BREAKOUT
WIND DIRECTION BREAKOUT
WEATHER BY HOUR - MAY 3, 2013
[ °C ]   °F
Local TimeTemperatureDewpointHumidityBarometerVisibilityWind DirectionWind SpeedGust SpeedPrecipitationEventsConditions
1:54 AM82.0 °F77.0 °F85 %29.85 in10.0 miSE (130°)5.8 mph0.00 inMostly Cloudy
2:54 AM81.0 °F77.0 °F88 %29.83 in10.0 miCalm0.00 inClear
3:34 AM82.4 °F77.0 °F84 %29.85 in10.0 miEast (100°)4.6 mphMostly Cloudy
3:41 AM82.4 °F77.0 °F84 %29.85 in10.0 miESE (110°)6.9 mphScattered Clouds
3:54 AM82.0 °F77.0 °F85 %29.83 in10.0 miEast (90°)6.9 mphPartly Cloudy
4:54 AM82.0 °F77.0 °F85 %29.83 in10.0 miESE (110°)5.8 mphClear
5:54 AM82.0 °F78.1 °F88 %29.85 in10.0 miESE (120°)4.6 mphPartly Cloudy
6:54 AM82.9 °F77.0 °F82 %29.88 in10.0 miSE (130°)4.6 mph0.01 inScattered Clouds
7:54 AM84.9 °F78.1 °F80 %29.90 in10.0 miESE (110°)8.1 mphMostly Cloudy
8:54 AM84.9 °F75.9 °F74 %29.91 in10.0 miESE (110°)10.4 mphScattered Clouds
9:54 AM84.9 °F77.0 °F77 %29.90 in10.0 miESE (110°)11.5 mphMostly Cloudy
9:59 AM84.2 °F78.8 °F84 %29.92 in9.0 miEast (90°)15.0 mph0.00 inRainLight Rain
10:54 AM86.0 °F78.1 °F77 %29.88 in10.0 miESE (110°)13.8 mph19.6 mph0.01 inMostly Cloudy
11:01 AM87.8 °F77.0 °F70 %29.90 in10.0 miESE (110°)15.0 mph21.9 mphClear
11:54 AM88.0 °F77.0 °F70 %29.88 in10.0 miESE (120°)11.5 mph20.7 mphPartly Cloudy
12:54 PM87.1 °F78.1 °F74 %29.87 in10.0 miSSE (150°)11.5 mph19.6 mphMostly Cloudy
1:08 PM87.8 °F75.2 °F66 %29.89 in10.0 miESE (110°)13.8 mph19.6 mphScattered Clouds
1:54 PM87.1 °F78.1 °F74 %29.86 in10.0 miSE (140°)10.4 mph20.7 mphMostly Cloudy
2:31 PM87.8 °F77.0 °F70 %29.87 in10.0 miESE (110°)16.1 mph21.9 mphScattered Clouds
2:54 PM87.1 °F77.0 °F72 %29.85 in10.0 miESE (120°)11.5 mph19.6 mphMostly Cloudy
3:22 PM82.4 °F78.8 °F89 %29.88 in1.5 miSSE (160°)12.7 mph21.9 mph0.05 inRainHeavy Rain
3:25 PM82.4 °F78.8 °F89 %29.88 in7.0 miSSE (160°)11.5 mph21.9 mph0.11 inRainLight Rain
3:52 PM82.4 °F77.0 °F84 %29.87 in8.0 miSE (130°)8.1 mph18.4 mph0.13 inRainLight Rain
3:54 PM82.0 °F77.0 °F85 %29.85 in9.0 miSE (130°)6.9 mph18.4 mph0.13 inRainLight Rain
4:54 PM82.9 °F78.1 °F85 %29.86 in3.0 miESE (120°)8.1 mph0.01 inRainHeavy Rain
5:00 PM82.4 °F78.8 °F89 %29.88 in7.0 miSE (140°)5.8 mph0.04 inRainLight Rain
5:54 PM82.0 °F78.1 °F88 %29.88 in10.0 miEast (100°)4.6 mph0.05 inMostly Cloudy
6:41 PM82.4 °F77.0 °F84 %29.91 in7.0 miSE (140°)5.8 mph0.05 inRainLight Rain
6:54 PM82.0 °F78.1 °F88 %29.90 in10.0 miSouth (190°)3.5 mph0.06 inMostly Cloudy
7:43 PM82.4 °F77.0 °F84 %29.93 in10.0 miESE (110°)6.9 mphMostly Cloudy
7:54 PM82.9 °F78.1 °F85 %29.91 in10.0 miEast (90°)8.1 mphMostly Cloudy
8:12 PM82.4 °F75.2 °F79 %29.94 in10.0 miESE (110°)8.1 mph0.00 inOvercast
8:54 PM82.9 °F78.1 °F85 %29.93 in10.0 miEast (90°)5.8 mph0.00 inMostly Cloudy
9:25 PM82.4 °F78.8 °F89 %29.95 in10.0 miESE (120°)4.6 mphScattered Clouds
9:54 PM82.9 °F77.0 °F82 %29.93 in10.0 miEast (90°)6.9 mphScattered Clouds
10:41 PM82.4 °F77.0 °F84 %29.96 in4.0 miSE (140°)11.5 mph18.4 mph0.00 inRainRain
10:49 PM82.4 °F77.0 °F84 %29.96 in5.0 miESE (120°)5.8 mph19.6 mph0.14 inRainLight Rain
10:54 PM82.0 °F77.0 °F85 %29.94 in7.0 miSE (140°)4.6 mph0.14 inRainLight Rain
11:21 PM82.4 °F78.8 °F89 %29.95 in10.0 miESE (110°)3.5 mph0.01 inMostly Cloudy
11:32 PM82.4 °F78.8 °F89 %29.94 in10.0 miESE (110°)6.9 mph0.01 inMostly Cloudy
11:44 PM82.4 °F75.2 °F79 %29.94 in10.0 miEast (90°)8.1 mph0.01 inMostly Cloudy
11:54 PM82.0 °F75.0 °F79 %29.92 in10.0 miEast (80°)10.4 mph0.01 inScattered Clouds
Hourly data recorded from PGUM, located miles away from Upi, Guam







STORIES FROM OUR PARTNERS